Vertical_Velocity
-0 -1 -0 -2 -2 -1 1 -3 -4 2 3 18 -1 -9 -22 22 7 12 -1 -0 3 -3 14 6 -11 -6 13 -9 9 -18 20 2 -10 -1 -1 18 6 1 4 -6 2 -12 -2 -31
-2 -1 -3 -3 -3 -0 -8 -6 -8 9 23 13 14 -5 -7 1 -2 1 6 14 -3 5 -5 5 2 28 -8 23 14 -10 22 -35 6 -12 -18 9 1 -1 4 1 -3 -46 30 -55
-2 -2 -0 0 -1 -1 -6 -3 -14 8 10 12 16 10 -4 -3 -1 4 4 15 8 5 -0 -4 4 19 29 7 15 -2 18 3 3 4 24 13 -4 1 1 -1 -17 9 -24 1
-2 -1 -1 -0 -1 5 -8 -3 -11 11 6 -2 -4 18 9 6 -8 1 3 18 -9 3 4 9 4 20 20 22 16 7 11 -2 13 0 -11 20 -12 -8 -0 -0 7 -1 17 -15
-3 -1 -2 0 -0 2 -9 -11 -11 13 16 3 11 13 -5 5 7 3 -24 -9 13 8 -1 2 12 -0 0 -7 5 19 9 -1 1 -5 11 17 -7 -5 -9 -2 11 -2 -3 -21
-0 -2 -4 -0 1 -9 -15 5 2 -1 20 9 5 -3 -10 2 20 5 8 3 9 -5 3 -1 -8 -2 3 -8 3 9 6 -6 10 -29 26 15 -6 -24 15 2 1 3 0 3
-4 -6 -2 -2 -2 -7 -10 -3 0 3 -8 11 4 -7 5 -7 -1 4 12 -1 -8 25 -2 2 0 4 3 -4 -3 3 -7 2 4 -21 12 -14 -19 2 11 6 8 2 13 1
-2 -0 -2 -3 -4 -6 -12 6 -1 -6 5 5 14 -10 -2 7 10 22 12 0 -5 -2 7 -6 -2 6 -1 -4 1 -7 -3 7 3 7 18 11 -17 9 6 8 -10 -2 -6 -11
-2 -1 -5 -1 -1 1 -10 -1 15 12 3 -16 29 5 -16 -10 9 12 1 -5 -18 0 -0 1 -1 -1 3 -3 -7 1 0 2 4 22 9 -5 -13 6 15 8 -52 50 -4 -7
-3 -1 -1 -1 -2 -1 -9 12 13 15 24 -4 3 4 -15 20 27 4 21 -3 -3 -2 9 4 1 -6 6 -8 -7 -1 -2 -2 -7 9 -4 -30 7 12 13 -6 -26 5 2 -2
-2 -0 -2 -1 -9 -4 -13 10 19 9 -2 4 10 14 -4 16 5 9 9 0 -5 -2 5 -7 -4 -11 -1 -11 -0 -7 6 24 -4 -4 -3 -41 18 0 0 1 -10 -2 1 -7
-1 -8 -1 -4 9 29 24 0 -4 -9 7 3 15 5 -13 7 -14 -17 -4 11 -5 4 -3 -13 -8 -11 2 3 -26 22 -31 -2 7 18 5 6 -3 -4 6 3 -2 -1 -5 -5
-1 3 2 15 26 1 24 26 14 8 12 3 5 0 -10 6 -9 31 3 9 3 7 -10 -2 2 -6 2 5 -11 4 -5 15 -23 16 17 -7 -3 -6 -7 3 -0 -2 -2 1
15 32 15 10 21 31 13 15 30 9 -1 -14 1 2 2 5 -3 7 0 -6 -23 -9 -4 -14 -15 -14 -5 -3 -8 -7 24 35 6 1 1 3 1 0 1 -8 5 0 -6 6
22 23 18 14 5 6 12 33 26 10 8 -1 -0 5 6 8 4 3 2 -6 -11 -6 -12 -8 -4 3 -12 1 -10 -2 9 10 -1 -2 -2 -2 5 2 10 -4 8 -7 -8 7
12 14 11 11 6 12 2 5 11 4 -4 -4 -11 4 -4 -7 3 -2 -11 -12 -15 -15 -12 -3 -13 -0 -5 -1 -3 8 2 4 -6 1 3 1 -0 -1 12 -0 -2 -1 -8 2
11 -4 5 -2 -3 -0 -1 -3 -4 -5 8 2 3 -8 -4 -2 -8 -6 -2 0 -7 -2 3 -7 -3 3 -6 -6 -7 20 -6 -5 -3 1 -2 -3 1 -1 -4 -1 -0 -0 -1 2
13 7 1 -0 2 -1 2 -1 2 -1 1 2 -13 -26 -12 -5 -5 -7 4 -9 -5 2 -0 10 3 -8 -13 -25 22 -2 -5 2 3 0 1 1 -0 -1 -1 -2 -1 -2 -0 -0
1 0 -2 -1 -3 -0 0 -4 9 2 0 -13 -8 -0 -6 -8 1 -2 -3 -12 -8 -2 -3 -3 -2 -5 -17 18 1 -4 10 12 0 -1 -2 -1 -1 0 0 0 -0 -0 0 -1
4 -0 -2 -9 5 2 -2 -12 -3 -1 -1 -19 8 -1 12 6 -9 -2 0 -0 -4 -6 2 -8 -11 -3 6 -4 5 8 1 -1 -1 -1 -2 -0 -1 -1 -1 -1 -1 1 -2 -0
-4 -4 -4 -10 -11 -7 -10 -13 -7 1 6 10 2 -4 -2 -4 -8 -2 -3 2 -2 -3 0 -5 -3 5 1 3 -0 2 -1 1 -1 -1 -1 -1 0 0 -0 1 1 -0 -0 -0
-0 -2 -1 -0 3 3 -2 -5 2 -2 -3 -4 -3 -0 -2 -2 -5 -6 -4 18 11 4 36 -5 2 -0 2 -4 -1 -1 -0 -3 -2 -1 -0 3 -1 -1 -0 1 -0 -1 0 0
8 5 6 4 3 -4 -2 -3 0 4 7 2 11 8 1 15 40 1 -4 -2 2 7 1 -0 2 5 -2 -2 -1 -3 -2 -1 1 2 2 -1 -2 -2 -2 -1 0 0 -0 1
13 0 1 11 0 -4 2 9 18 6 9 -0 7 2 -1 3 3 -1 -1 -1 3 -3 -2 -4 11 -6 0 0 0 -0 1 1 -0 -1 -1 -1 -2 -1 -1 -1 -1 -1 -0 -0
2 2 0 0 -0 -2 -2 0 1 -0 6 7 2 -2 0 -4 -1 -2 1 -1 -5 -2 3 2 -5 1 -2 0 -0 -1 0 -0 -0 -1 -0 0 0 -1 -1 -1 -1 -2 -2 -1
-1 2 1 1 0 -1 -1 0 -0 -1 1 2 0 0 0 1 -1 1 -2 -1 2 -0 -3 -0 -0 0 0 0 0 0 0 0 0 0 0 0 -0 -1 -1 -2 -3 -3 -3 -4
3 -2 -2 1 -1 -0 0 3 3 2 1 -0 -1 -1 -0 2 -1 0 1 1 -3 1 -0 -0 0 0 -0 1 0 -0 -0 -0 -0 0 -0 -0 -0 -1 -1 -2 -2 -2 -3 -3
Height
5483 5486 5487 5489 5491 5491 5494 5499 5503 5522 5528 5526 5520 5523 5545 5558 5559 5559 5561 5568 5573 5585 5595 5597 5600 5609 5614 5614 5619 5625 5632 5628 5633 5640 5643 5645 5646 5651 5651 5648 5655 5653 5657 5661
5471 5474 5474 5476 5477 5478 5477 5482 5491 5504 5510 5507 5509 5527 5536 5538 5544 5549 5552 5558 5562 5572 5580 5586 5592 5599 5597 5603 5603 5607 5614 5611 5619 5625 5632 5633 5633 5638 5638 5639 5643 5643 5646 5654
5457 5460 5463 5464 5465 5466 5466 5471 5476 5487 5491 5498 5502 5517 5524 5529 5537 5540 5544 5549 5552 5559 5568 5573 5584 5583 5589 5587 5591 5593 5596 5598 5605 5611 5622 5622 5621 5624 5628 5629 5629 5634 5633 5639
5445 5448 5450 5452 5453 5453 5453 5458 5464 5473 5482 5484 5493 5505 5514 5520 5526 5532 5536 5540 5543 5553 5560 5563 5572 5570 5571 5574 5577 5581 5585 5587 5595 5600 5607 5606 5604 5609 5618 5618 5618 5618 5628 5624
5432 5435 5437 5439 5440 5440 5442 5448 5456 5462 5474 5474 5482 5490 5499 5509 5518 5522 5528 5534 5539 5544 5546 5553 5562 5559 5555 5559 5567 5569 5569 5573 5577 5583 5590 5592 5590 5599 5606 5604 5609 5607 5611 5612
5419 5421 5423 5425 5426 5425 5430 5438 5444 5444 5462 5466 5471 5480 5491 5499 5510 5514 5519 5526 5529 5532 5541 5540 5545 5549 5551 5554 5560 5562 5561 5564 5568 5569 5580 5580 5575 5590 5590 5594 5596 5597 5596 5602
5404 5406 5408 5410 5410 5411 5415 5422 5429 5431 5452 5454 5463 5474 5486 5496 5502 5507 5511 5515 5520 5531 5526 5534 5537 5540 5541 5543 5548 5551 5554 5557 5560 5563 5568 5558 5571 5580 5579 5579 5582 5586 5585 5586
5391 5392 5393 5393 5394 5395 5400 5407 5413 5423 5441 5450 5455 5467 5479 5489 5495 5499 5503 5511 5511 5518 5522 5524 5525 5531 5531 5535 5539 5542 5545 5549 5551 5551 5552 5554 5558 5570 5568 5565 5566 5576 5571 5575
5378 5377 5377 5376 5379 5382 5386 5396 5407 5421 5435 5445 5455 5463 5471 5478 5486 5490 5496 5499 5507 5511 5513 5516 5516 5520 5524 5528 5531 5535 5537 5538 5540 5543 5540 5541 5558 5561 5557 5553 5551 5564 5559 5562
5362 5361 5361 5364 5367 5370 5377 5389 5399 5412 5426 5439 5445 5454 5464 5471 5477 5484 5483 5489 5496 5501 5505 5509 5511 5515 5519 5521 5524 5529 5530 5531 5530 5533 5531 5534 5551 5547 5547 5540 5552 5548 5550 5551
5350 5352 5352 5353 5356 5362 5371 5385 5395 5408 5425 5434 5441 5447 5456 5465 5469 5475 5481 5483 5488 5494 5499 5503 5507 5511 5514 5516 5521 5523 5523 5524 5523 5525 5524 5527 5531 5534 5533 5534 5534 5537 5538 5538
5344 5342 5343 5347 5354 5360 5370 5382 5395 5409 5420 5429 5436 5442 5449 5458 5465 5469 5475 5479 5483 5488 5492 5497 5499 5505 5506 5509 5512 5514 5514 5517 5517 5519 5517 5519 5520 5523 5524 5524 5524 5526 5526 5529
5341 5344 5348 5352 5359 5367 5375 5385 5399 5407 5415 5423 5431 5438 5447 5452 5459 5468 5469 5472 5477 5481 5485 5490 5493 5496 5498 5501 5504 5501 5505 5506 5504 5508 5513 5510 5513 5514 5515 5515 5515 5517 5517 5520
5345 5350 5354 5359 5364 5372 5380 5388 5397 5404 5411 5419 5426 5434 5441 5447 5453 5459 5462 5466 5470 5477 5480 5484 5488 5491 5492 5494 5496 5496 5498 5499 5498 5498 5500 5501 5503 5504 5505 5505 5506 5507 5508 5512
5351 5355 5359 5363 5369 5376 5382 5388 5392 5399 5409 5415 5422 5428 5435 5441 5447 5451 5456 5461 5464 5468 5473 5477 5479 5480 5482 5486 5487 5491 5490 5490 5490 5492 5492 5493 5495 5495 5495 5495 5497 5497 5498 5500
5354 5357 5361 5366 5371 5377 5381 5387 5393 5399 5407 5415 5419 5426 5431 5437 5442 5446 5450 5455 5458 5461 5464 5466 5470 5471 5473 5474 5478 5481 5482 5482 5483 5484 5484 5485 5486 5487 5487 5488 5488 5490 5491 5491
5356 5359 5363 5367 5372 5377 5383 5390 5396 5401 5406 5411 5415 5420 5428 5432 5435 5440 5443 5444 5447 5449 5450 5454 5459 5461 5464 5467 5472 5475 5475 5476 5477 5478 5478 5479 5479 5480 5480 5482 5483 5483 5482 5481
5358 5362 5366 5370 5376 5380 5386 5391 5394 5398 5402 5405 5409 5416 5421 5423 5426 5429 5431 5433 5434 5435 5438 5443 5446 5453 5458 5461 5466 5468 5469 5470 5471 5472 5472 5473 5473 5474 5475 5475 5475 5474 5474 5473
5361 5365 5369 5373 5377 5381 5384 5388 5391 5395 5397 5399 5404 5408 5413 5416 5419 5420 5425 5428 5430 5432 5434 5439 5444 5448 5451 5458 5460 5461 5462 5463 5465 5466 5467 5467 5467 5467 5468 5467 5467 5466 5466 5465
5362 5367 5370 5375 5378 5380 5383 5387 5390 5390 5394 5400 5400 5404 5408 5414 5418 5418 5422 5424 5427 5428 5433 5437 5440 5445 5449 5451 5453 5455 5456 5458 5459 5460 5461 5460 5461 5461 5461 5460 5460 5460 5459 5459
5361 5365 5370 5373 5378 5382 5386 5389 5394 5398 5401 5404 5406 5408 5410 5412 5413 5416 5420 5423 5426 5429 5434 5436 5439 5442 5445 5448 5449 5451 5452 5453 5453 5454 5454 5454 5455 5455 5455 5454 5454 5455 5454 5454
5363 5366 5372 5377 5380 5385 5389 5392 5396 5399 5402 5404 5405 5407 5409 5411 5413 5417 5421 5424 5427 5429 5431 5435 5436 5439 5442 5444 5446 5447 5448 5448 5448 5448 5449 5450 5450 5450 5450 5450 5450 5449 5449 5449
5372 5376 5380 5384 5389 5391 5393 5396 5398 5399 5402 5403 5406 5409 5411 5413 5414 5419 5421 5423 5426 5428 5430 5433 5435 5437 5439 5440 5441 5442 5442 5442 5443 5444 5444 5445 5446 5445 5445 5444 5444 5444 5444 5444
5382 5383 5386 5388 5392 5394 5396 5398 5401 5402 5404 5406 5409 5411 5412 5414 5417 5419 5421 5424 5425 5427 5428 5431 5434 5433 5435 5436 5436 5437 5437 5438 5439 5440 5441 5442 5441 5441 5439 5438 5437 5437 5436 5436
5387 5389 5392 5393 5395 5397 5399 5400 5402 5404 5406 5408 5410 5412 5413 5414 5416 5418 5420 5421 5423 5425 5427 5428 5428 5430 5430 5432 5433 5434 5435 5436 5437 5438 5438 5439 5438 5437 5436 5435 5434 5432 5431 5429
5390 5392 5394 5396 5397 5399 5401 5402 5404 5406 5407 5409 5410 5411 5412 5413 5415 5416 5418 5419 5421 5422 5422 5423 5424 5425 5427 5428 5430 5431 5432 5433 5434 5435 5436 5436 5435 5435 5434 5433 5431 5430 5428 5426
5392 5394 5396 5397 5398 5400 5401 5403 5404 5406 5407 5407 5409 5409 5410 5411 5412 5414 5415 5417 5417 5418 5419 5420 5422 5423 5425 5426 5427 5428 5429 5430 5432 5433 5433 5433 5433 5432 5432 5431 5429 5427 5425 5423